Time,TemperatureF,DewpointF,PressureIn,WindDirection,WindDirectionDegrees,WindSpeedMPH,WindSpeedGustMPH,Humidity,HourlyPrecipIn,Conditions,Clouds,dailyrainin,SoftwareType,DateUTC
2013-09-24 00:05:00,58.0,49.4,28.86,ENE,67,6.0,11.0,73,0.00,,,0.00,Weather View 32 v70,2013-09-24 05:05:00,
2013-09-24 00:10:00,58.0,49.4,28.85,East,90,5.0,11.0,73,0.00,,,0.00,Weather View 32 v70,2013-09-24 05:10:00,
2013-09-24 00:15:00,58.0,49.7,28.85,East,90,7.0,11.0,74,0.00,,,0.00,Weather View 32 v70,2013-09-24 05:15:00,
2013-09-24 00:20:00,58.0,49.4,28.85,East,90,9.0,11.0,73,0.00,,,0.00,Weather View 32 v70,2013-09-24 05:20:00,
2013-09-24 00:30:00,58.0,49.7,28.86,East,90,1.0,11.0,74,0.00,,,0.00,Weather View 32 v70,2013-09-24 05:30:00,
2013-09-24 00:35:00,57.0,49.5,28.86,NE,45,3.0,11.0,76,0.00,,,0.00,Weather View 32 v70,2013-09-24 05:35:00,
2013-09-24 00:40:00,57.0,49.8,28.87,NE,45,4.0,11.0,77,0.00,,,0.00,Weather View 32 v70,2013-09-24 05:40:00,
2013-09-24 00:50:00,57.0,50.2,28.86,NNE,22,3.0,11.0,78,0.00,,,0.00,Weather View 32 v70,2013-09-24 05:50:00,
2013-09-24 00:55:00,57.0,50.5,28.86,ENE,67,8.0,11.0,79,0.00,,,0.00,Weather View 32 v70,2013-09-24 05:55:00,
2013-09-24 01:00:00,56.0,49.9,28.87,ENE,67,0.0,11.0,80,0.00,,,0.00,Weather View 32 v70,2013-09-24 06:00:00,
2013-09-24 01:10:00,56.0,50.2,28.86,East,90,3.0,11.0,81,0.00,,,0.00,Weather View 32 v70,2013-09-24 06:10:00,
2013-09-24 01:15:00,56.0,50.2,28.86,ENE,67,5.0,11.0,81,0.00,,,0.00,Weather View 32 v70,2013-09-24 06:15:00,
2013-09-24 01:25:00,56.0,50.2,28.87,East,90,4.0,10.0,81,0.00,,,0.00,Weather View 32 v70,2013-09-24 06:25:00,
2013-09-24 01:30:00,56.0,50.2,28.86,ENE,67,9.0,10.0,81,0.00,,,0.00,Weather View 32 v70,2013-09-24 06:30:00,
2013-09-24 01:35:00,56.0,50.2,28.86,East,90,5.0,10.0,81,0.00,,,0.00,Weather View 32 v70,2013-09-24 06:35:00,
2013-09-24 01:45:00,56.0,50.6,28.87,East,90,6.0,10.0,82,0.00,,,0.00,Weather View 32 v70,2013-09-24 06:45:00,
2013-09-24 01:50:00,56.0,50.9,28.87,ENE,67,4.0,11.0,83,0.00,,,0.00,Weather View 32 v70,2013-09-24 06:50:00,
2013-09-24 01:55:00,56.0,51.2,28.87,East,90,6.0,11.0,84,0.00,,,0.00,Weather View 32 v70,2013-09-24 06:55:00,
2013-09-24 02:05:00,55.0,50.2,28.86,East,90,3.0,11.0,84,0.00,,,0.00,Weather View 32 v70,2013-09-24 07:05:00,
2013-09-24 02:15:00,55.0,50.9,28.86,NE,45,5.0,11.0,86,0.00,,,0.00,Weather View 32 v70,2013-09-24 07:15:00,
2013-09-24 02:20:00,55.0,50.9,28.86,NE,45,4.0,11.0,86,0.00,,,0.00,Weather View 32 v70,2013-09-24 07:20:00,
2013-09-24 02:25:00,55.0,51.2,28.86,NE,45,3.0,11.0,87,0.00,,,0.00,Weather View 32 v70,2013-09-24 07:25:00,
2013-09-24 02:30:00,55.0,51.5,28.87,NE,45,4.0,11.0,88,0.00,,,0.00,Weather View 32 v70,2013-09-24 07:30:00,
2013-09-24 02:40:00,54.0,51.1,28.87,East,90,3.0,11.0,90,0.00,,,0.00,Weather View 32 v70,2013-09-24 07:40:00,
2013-09-24 02:45:00,54.0,51.4,28.87,East,90,0.0,11.0,91,0.00,,,0.00,Weather View 32 v70,2013-09-24 07:45:00,
2013-09-24 02:50:00,54.0,51.7,28.87,East,90,5.0,9.0,92,0.00,,,0.00,Weather View 32 v70,2013-09-24 07:50:00,
2013-09-24 03:00:00,54.0,52.0,28.87,East,90,3.0,9.0,93,0.00,,,0.00,Weather View 32 v70,2013-09-24 08:00:00,
2013-09-24 03:05:00,54.0,52.3,28.87,NNE,22,3.0,8.0,94,0.00,,,0.00,Weather View 32 v70,2013-09-24 08:05:00,
2013-09-24 03:10:00,53.0,51.0,28.87,ENE,67,3.0,8.0,93,0.00,,,0.00,Weather View 32 v70,2013-09-24 08:10:00,
2013-09-24 03:15:00,53.0,51.3,28.87,NE,45,2.0,8.0,94,0.00,,,0.00,Weather View 32 v70,2013-09-24 08:15:00,
2013-09-24 03:25:00,53.0,51.9,28.87,ENE,67,4.0,8.0,96,0.00,,,0.00,Weather View 32 v70,2013-09-24 08:25:00,
2013-09-24 03:30:00,53.0,51.9,28.87,ENE,67,4.0,8.0,96,0.00,,,0.00,Weather View 32 v70,2013-09-24 08:30:00,
2013-09-24 03:35:00,53.0,52.2,28.87,East,90,4.0,8.0,97,0.00,,,0.00,Weather View 32 v70,2013-09-24 08:35:00,
2013-09-24 03:45:00,53.0,51.9,28.87,ENE,67,3.0,8.0,96,0.00,,,0.00,Weather View 32 v70,2013-09-24 08:45:00,
2013-09-24 03:50:00,53.0,51.9,28.87,East,90,6.0,8.0,96,0.00,,,0.00,Weather View 32 v70,2013-09-24 08:50:00,
2013-09-24 03:55:00,53.0,51.9,28.87,ENE,67,3.0,8.0,96,0.00,,,0.00,Weather View 32 v70,2013-09-24 08:55:00,
2013-09-24 04:00:00,53.0,51.9,28.87,ENE,67,3.0,8.0,96,0.00,,,0.00,Weather View 32 v70,2013-09-24 09:00:00,
2013-09-24 04:05:00,53.0,52.2,28.87,NE,45,5.0,10.0,97,0.00,,,0.00,Weather View 32 v70,2013-09-24 09:05:00,
2013-09-24 04:15:00,52.0,51.7,28.87,NE,45,4.0,10.0,99,0.00,,,0.00,Weather View 32 v70,2013-09-24 09:15:00,
2013-09-24 04:20:00,52.0,51.7,28.86,East,90,2.0,10.0,99,0.00,,,0.00,Weather View 32 v70,2013-09-24 09:20:00,
2013-09-24 04:30:00,52.0,52.0,28.86,North,360,4.0,10.0,100,0.00,,,0.00,Weather View 32 v70,2013-09-24 09:30:00,
2013-09-24 04:35:00,52.0,52.0,28.86,NNE,22,3.0,10.0,100,0.00,,,0.00,Weather View 32 v70,2013-09-24 09:35:00,
2013-09-24 04:40:00,52.0,52.0,28.86,NE,45,3.0,10.0,100,0.00,,,0.00,Weather View 32 v70,2013-09-24 09:40:00,
2013-09-24 04:50:00,52.0,52.0,28.86,ENE,67,8.0,10.0,100,0.00,,,0.00,Weather View 32 v70,2013-09-24 09:50:00,
2013-09-24 04:55:00,52.0,52.0,28.86,ENE,67,5.0,10.0,100,0.00,,,0.00,Weather View 32 v70,2013-09-24 09:55:00,
2013-09-24 05:00:00,52.0,52.0,28.86,East,90,2.0,10.0,100,0.00,,,0.00,Weather View 32 v70,2013-09-24 10:00:00,
2013-09-24 05:05:00,52.0,52.0,28.86,ENE,67,5.0,11.0,100,0.00,,,0.00,Weather View 32 v70,2013-09-24 10:05:00,
2013-09-24 05:15:00,52.0,52.0,28.86,NE,45,3.0,11.0,100,0.00,,,0.00,Weather View 32 v70,2013-09-24 10:15:00,
2013-09-24 05:25:00,51.0,51.0,28.87,NNE,22,5.0,11.0,100,0.00,,,0.00,Weather View 32 v70,2013-09-24 10:25:00,
2013-09-24 05:30:00,51.0,51.0,28.87,East,90,4.0,11.0,100,0.00,,,0.00,Weather View 32 v70,2013-09-24 10:30:00,
2013-09-24 05:35:00,51.0,51.0,28.87,East,90,4.0,11.0,100,0.00,,,0.00,Weather View 32 v70,2013-09-24 10:35:00,
2013-09-24 05:40:00,51.0,51.0,28.87,ENE,67,8.0,11.0,100,0.00,,,0.00,Weather View 32 v70,2013-09-24 10:40:00,
2013-09-24 05:50:00,52.0,52.0,28.87,East,90,4.0,11.0,100,0.00,,,0.00,Weather View 32 v70,2013-09-24 10:50:00,
2013-09-24 05:55:00,51.0,51.0,28.87,East,90,4.0,11.0,100,0.00,,,0.00,Weather View 32 v70,2013-09-24 10:55:00,
2013-09-24 06:05:00,51.0,51.0,28.87,ENE,67,7.0,10.0,100,0.00,,,0.00,Weather View 32 v70,2013-09-24 11:05:00,
2013-09-24 06:10:00,51.0,51.0,28.87,ENE,67,5.0,10.0,100,0.00,,,0.00,Weather View 32 v70,2013-09-24 11:10:00,
2013-09-24 06:15:00,51.0,51.0,28.87,ENE,67,5.0,9.0,100,0.00,,,0.00,Weather View 32 v70,2013-09-24 11:15:00,
2013-09-24 06:20:00,51.0,51.0,28.87,ENE,67,5.0,9.0,100,0.00,,,0.00,Weather View 32 v70,2013-09-24 11:20:00,
2013-09-24 06:25:00,51.0,51.0,28.87,ENE,67,5.0,9.0,100,0.00,,,0.00,Weather View 32 v70,2013-09-24 11:25:00,
2013-09-24 06:35:00,51.0,51.0,28.87,ENE,67,5.0,9.0,100,0.00,,,0.00,Weather View 32 v70,2013-09-24 11:35:00,
2013-09-24 06:45:00,51.0,51.0,28.87,ENE,67,5.0,9.0,100,0.00,,,0.00,Weather View 32 v70,2013-09-24 11:45:00,
2013-09-24 06:50:00,51.0,51.0,28.87,ENE,67,5.0,9.0,100,0.00,,,0.00,Weather View 32 v70,2013-09-24 11:50:00,
2013-09-24 06:55:00,51.0,51.0,28.87,ENE,67,5.0,9.0,100,0.00,,,0.00,Weather View 32 v70,2013-09-24 11:55:00,
2013-09-24 07:05:00,51.0,51.0,28.87,ENE,67,5.0,9.0,100,0.00,,,0.00,Weather View 32 v70,2013-09-24 12:05:00,
2013-09-24 07:15:00,51.0,51.0,28.87,ENE,67,5.0,0.0,100,0.00,,,0.00,Weather View 32 v70,2013-09-24 12:15:00,
2013-09-24 07:20:00,51.0,51.0,28.87,ENE,67,5.0,0.0,100,0.00,,,0.00,Weather View 32 v70,2013-09-24 12:20:00,
2013-09-24 07:30:00,51.0,51.0,28.87,ENE,67,5.0,0.0,100,0.00,,,0.00,Weather View 32 v70,2013-09-24 12:30:00,
2013-09-24 07:35:00,51.0,51.0,28.87,ENE,67,5.0,0.0,100,0.00,,,0.00,Weather View 32 v70,2013-09-24 12:35:00,
2013-09-24 07:40:00,51.0,51.0,28.87,ENE,67,5.0,0.0,100,0.00,,,0.00,Weather View 32 v70,2013-09-24 12:40:00,
2013-09-24 07:50:00,51.0,51.0,28.87,ENE,67,5.0,0.0,100,0.00,,,0.00,Weather View 32 v70,2013-09-24 12:50:00,
2013-09-24 07:55:00,51.0,51.0,28.87,ENE,67,5.0,0.0,100,0.00,,,0.00,Weather View 32 v70,2013-09-24 12:55:00,
2013-09-24 08:00:00,51.0,51.0,28.87,ENE,67,5.0,0.0,100,0.00,,,0.00,Weather View 32 v70,2013-09-24 13:00:00,
2013-09-24 08:07:00,51.0,51.0,28.87,ENE,67,5.0,0.0,100,0.00,,,0.00,Weather View 32 v70,2013-09-24 13:07:00,
2013-09-24 08:15:00,51.0,51.0,28.87,ENE,67,5.0,0.0,100,0.00,,,0.00,Weather View 32 v70,2013-09-24 13:15:00,
2013-09-24 08:25:00,51.0,51.0,28.87,ENE,67,5.0,0.0,100,0.00,,,0.00,Weather View 32 v70,2013-09-24 13:25:00,
2013-09-24 08:30:00,51.0,51.0,28.87,ENE,67,5.0,0.0,100,0.00,,,0.00,Weather View 32 v70,2013-09-24 13:30:00,
2013-09-24 08:35:00,51.0,51.0,28.87,ENE,67,5.0,0.0,100,0.00,,,0.00,Weather View 32 v70,2013-09-24 13:35:00,
2013-09-24 08:45:00,51.0,51.0,28.87,ENE,67,5.0,0.0,100,0.00,,,0.00,Weather View 32 v70,2013-09-24 13:45:00,
2013-09-24 08:50:00,51.0,51.0,28.87,ENE,67,5.0,0.0,100,0.00,,,0.00,Weather View 32 v70,2013-09-24 13:50:00,
2013-09-24 08:55:00,51.0,51.0,28.87,ENE,67,5.0,0.0,100,0.00,,,0.00,Weather View 32 v70,2013-09-24 13:55:00,
2013-09-24 09:05:00,51.0,51.0,28.87,ENE,67,5.0,0.0,100,0.00,,,0.00,Weather View 32 v70,2013-09-24 14:05:00,
2013-09-24 09:10:00,51.0,51.0,28.87,ENE,67,5.0,0.0,100,0.00,,,0.00,Weather View 32 v70,2013-09-24 14:10:00,
2013-09-24 09:15:00,51.0,51.0,28.87,ENE,67,5.0,0.0,100,0.00,,,0.00,Weather View 32 v70,2013-09-24 14:15:00,
2013-09-24 09:20:00,51.0,51.0,28.87,ENE,67,5.0,0.0,100,0.00,,,0.00,Weather View 32 v70,2013-09-24 14:20:00,
2013-09-24 09:30:00,51.0,51.0,28.87,ENE,67,5.0,0.0,100,0.00,,,0.00,Weather View 32 v70,2013-09-24 14:30:00,
2013-09-24 09:35:00,51.0,51.0,28.87,ENE,67,5.0,0.0,100,0.00,,,0.00,Weather View 32 v70,2013-09-24 14:35:00,
2013-09-24 09:40:00,51.0,51.0,28.87,ENE,67,5.0,0.0,100,0.00,,,0.00,Weather View 32 v70,2013-09-24 14:40:00,
2013-09-24 09:50:00,51.0,51.0,28.87,ENE,67,5.0,0.0,100,0.00,,,0.00,Weather View 32 v70,2013-09-24 14:50:00,
2013-09-24 09:55:00,51.0,51.0,28.87,ENE,67,5.0,0.0,100,0.00,,,0.00,Weather View 32 v70,2013-09-24 14:55:00,
2013-09-24 10:00:00,51.0,51.0,28.87,ENE,67,5.0,0.0,100,0.00,,,0.00,Weather View 32 v70,2013-09-24 15:00:00,
2013-09-24 10:08:00,51.0,51.0,28.87,ENE,67,5.0,0.0,100,0.00,,,0.00,Weather View 32 v70,2013-09-24 15:08:00,
2013-09-24 10:15:00,51.0,51.0,28.87,ENE,67,5.0,0.0,100,0.00,,,0.00,Weather View 32 v70,2013-09-24 15:15:00,
2013-09-24 10:20:00,51.0,51.0,28.87,ENE,67,5.0,0.0,100,0.00,,,0.00,Weather View 32 v70,2013-09-24 15:20:00,
2013-09-24 10:30:00,51.0,51.0,28.87,ENE,67,5.0,0.0,100,0.00,,,0.00,Weather View 32 v70,2013-09-24 15:30:00,
2013-09-24 10:35:00,51.0,51.0,28.87,ENE,67,5.0,0.0,100,0.00,,,0.00,Weather View 32 v70,2013-09-24 15:35:00,
2013-09-24 10:45:00,51.0,51.0,28.87,ENE,67,5.0,0.0,100,0.00,,,0.00,Weather View 32 v70,2013-09-24 15:45:00,
2013-09-24 10:50:00,51.0,51.0,28.87,ENE,67,5.0,0.0,100,0.00,,,0.00,Weather View 32 v70,2013-09-24 15:50:00,
2013-09-24 11:00:00,51.0,51.0,28.87,ENE,67,5.0,0.0,100,0.00,,,0.00,Weather View 32 v70,2013-09-24 16:00:00,
2013-09-24 11:05:00,51.0,51.0,28.87,ENE,67,5.0,0.0,100,0.00,,,0.00,Weather View 32 v70,2013-09-24 16:05:00,
2013-09-24 11:15:00,51.0,51.0,28.87,ENE,67,5.0,0.0,100,0.00,,,0.00,Weather View 32 v70,2013-09-24 16:15:00,
2013-09-24 11:20:00,51.0,51.0,28.87,ENE,67,5.0,0.0,100,0.00,,,0.00,Weather View 32 v70,2013-09-24 16:20:00,
2013-09-24 11:25:00,51.0,51.0,28.87,ENE,67,5.0,0.0,100,0.00,,,0.00,Weather View 32 v70,2013-09-24 16:25:00,
2013-09-24 11:30:00,51.0,51.0,28.87,ENE,67,5.0,0.0,100,0.00,,,0.00,Weather View 32 v70,2013-09-24 16:30:00,
2013-09-24 11:40:00,51.0,51.0,28.87,ENE,67,5.0,0.0,100,0.00,,,0.00,Weather View 32 v70,2013-09-24 16:40:00,
2013-09-24 11:45:00,51.0,51.0,28.87,ENE,67,5.0,0.0,100,0.00,,,0.00,Weather View 32 v70,2013-09-24 16:45:00,
2013-09-24 11:50:00,51.0,51.0,28.87,ENE,67,5.0,0.0,100,0.00,,,0.00,Weather View 32 v70,2013-09-24 16:50:00,
2013-09-24 11:55:00,51.0,51.0,28.87,ENE,67,5.0,0.0,100,0.00,,,0.00,Weather View 32 v70,2013-09-24 16:55:00,
2013-09-24 12:00:00,51.0,51.0,28.87,ENE,67,5.0,0.0,100,0.00,,,0.00,Weather View 32 v70,2013-09-24 17:00:00,
2013-09-24 12:09:00,51.0,51.0,28.87,ENE,67,5.0,0.0,100,0.00,,,0.00,Weather View 32 v70,2013-09-24 17:09:00,
2013-09-24 12:15:00,51.0,51.0,28.87,ENE,67,5.0,0.0,100,0.00,,,0.00,Weather View 32 v70,2013-09-24 17:15:00,
2013-09-24 12:20:00,51.0,51.0,28.87,ENE,67,5.0,0.0,100,0.00,,,0.00,Weather View 32 v70,2013-09-24 17:20:00,
2013-09-24 12:25:00,51.0,51.0,28.87,ENE,67,5.0,0.0,100,0.00,,,0.00,Weather View 32 v70,2013-09-24 17:25:00,
2013-09-24 12:35:00,51.0,51.0,28.87,ENE,67,5.0,0.0,100,0.00,,,0.00,Weather View 32 v70,2013-09-24 17:35:00,
2013-09-24 12:45:00,51.0,51.0,28.87,ENE,67,5.0,0.0,100,0.00,,,0.00,Weather View 32 v70,2013-09-24 17:45:00,
2013-09-24 12:55:00,51.0,51.0,28.87,ENE,67,5.0,0.0,100,0.00,,,0.00,Weather View 32 v70,2013-09-24 17:55:00,
2013-09-24 13:05:00,51.0,51.0,28.87,ENE,67,5.0,0.0,100,0.00,,,0.00,Weather View 32 v70,2013-09-24 18:05:00,
2013-09-24 13:10:00,51.0,51.0,28.87,ENE,67,5.0,0.0,100,0.00,,,0.00,Weather View 32 v70,2013-09-24 18:10:00,
2013-09-24 13:20:00,51.0,51.0,28.87,ENE,67,5.0,0.0,100,0.00,,,0.00,Weather View 32 v70,2013-09-24 18:20:00,
2013-09-24 13:25:00,51.0,51.0,28.87,ENE,67,5.0,0.0,100,0.00,,,0.00,Weather View 32 v70,2013-09-24 18:25:00,
2013-09-24 13:30:00,51.0,51.0,28.87,ENE,67,5.0,0.0,100,0.00,,,0.00,Weather View 32 v70,2013-09-24 18:30:00,
2013-09-24 13:35:00,51.0,51.0,28.87,ENE,67,5.0,0.0,100,0.00,,,0.00,Weather View 32 v70,2013-09-24 18:35:00,
2013-09-24 13:45:00,51.0,51.0,28.87,ENE,67,5.0,0.0,100,0.00,,,0.00,Weather View 32 v70,2013-09-24 18:45:00,
2013-09-24 13:50:00,51.0,51.0,28.87,ENE,67,5.0,0.0,100,0.00,,,0.00,Weather View 32 v70,2013-09-24 18:50:00,
2013-09-24 13:55:00,51.0,51.0,28.87,ENE,67,5.0,0.0,100,0.00,,,0.00,Weather View 32 v70,2013-09-24 18:55:00,
2013-09-24 14:05:00,51.0,51.0,28.87,ENE,67,5.0,0.0,100,0.00,,,0.00,Weather View 32 v70,2013-09-24 19:05:00,
2013-09-24 14:10:00,51.0,51.0,28.87,ENE,67,5.0,0.0,100,0.00,,,0.00,Weather View 32 v70,2013-09-24 19:10:00,
2013-09-24 14:20:00,51.0,51.0,28.87,ENE,67,5.0,0.0,100,0.00,,,0.00,Weather View 32 v70,2013-09-24 19:20:00,
2013-09-24 14:25:00,51.0,51.0,28.87,ENE,67,5.0,0.0,100,0.00,,,0.00,Weather View 32 v70,2013-09-24 19:25:00,
2013-09-24 14:30:00,51.0,51.0,28.87,ENE,67,5.0,0.0,100,0.00,,,0.00,Weather View 32 v70,2013-09-24 19:30:00,
2013-09-24 14:40:00,51.0,51.0,28.87,ENE,67,5.0,0.0,100,0.00,,,0.00,Weather View 32 v70,2013-09-24 19:40:00,
2013-09-24 14:45:00,51.0,51.0,28.87,ENE,67,5.0,0.0,100,0.00,,,0.00,Weather View 32 v70,2013-09-24 19:45:00,
2013-09-24 14:50:00,51.0,51.0,28.87,ENE,67,5.0,0.0,100,0.00,,,0.00,Weather View 32 v70,2013-09-24 19:50:00,
2013-09-24 14:55:00,51.0,51.0,28.87,ENE,67,5.0,0.0,100,0.00,,,0.00,Weather View 32 v70,2013-09-24 19:55:00,
2013-09-24 15:00:00,51.0,51.0,28.87,ENE,67,5.0,0.0,100,0.00,,,0.00,Weather View 32 v70,2013-09-24 20:00:00,
2013-09-24 15:10:00,51.0,51.0,28.87,ENE,67,5.0,0.0,100,0.00,,,0.00,Weather View 32 v70,2013-09-24 20:10:00,
2013-09-24 15:20:00,51.0,51.0,28.87,ENE,67,5.0,0.0,100,0.00,,,0.00,Weather View 32 v70,2013-09-24 20:20:00,
2013-09-24 15:25:00,51.0,51.0,28.87,ENE,67,5.0,0.0,100,0.00,,,0.00,Weather View 32 v70,2013-09-24 20:25:00,
2013-09-24 15:30:00,51.0,51.0,28.87,ENE,67,5.0,0.0,100,0.00,,,0.00,Weather View 32 v70,2013-09-24 20:30:00,
2013-09-24 15:40:00,51.0,51.0,28.87,ENE,67,5.0,0.0,100,0.00,,,0.00,Weather View 32 v70,2013-09-24 20:40:00,
2013-09-24 15:50:00,51.0,51.0,28.87,ENE,67,5.0,0.0,100,0.00,,,0.00,Weather View 32 v70,2013-09-24 20:50:00,
2013-09-24 15:55:00,51.0,51.0,28.87,ENE,67,5.0,0.0,100,0.00,,,0.00,Weather View 32 v70,2013-09-24 20:55:00,
2013-09-24 16:05:00,51.0,51.0,28.87,ENE,67,5.0,0.0,100,0.00,,,0.00,Weather View 32 v70,2013-09-24 21:05:00,
2013-09-24 16:10:00,51.0,51.0,28.87,ENE,67,5.0,0.0,100,0.00,,,0.00,Weather View 32 v70,2013-09-24 21:10:00,
2013-09-24 16:15:00,51.0,51.0,28.87,ENE,67,5.0,0.0,100,0.00,,,0.00,Weather View 32 v70,2013-09-24 21:15:00,
2013-09-24 16:25:00,51.0,51.0,28.87,ENE,67,5.0,0.0,100,0.00,,,0.00,Weather View 32 v70,2013-09-24 21:25:00,
2013-09-24 16:30:00,51.0,51.0,28.87,ENE,67,5.0,0.0,100,0.00,,,0.00,Weather View 32 v70,2013-09-24 21:30:00,
2013-09-24 16:40:00,51.0,51.0,28.87,ENE,67,5.0,0.0,100,0.00,,,0.00,Weather View 32 v70,2013-09-24 21:40:00,
2013-09-24 16:45:00,51.0,51.0,28.87,ENE,67,5.0,0.0,100,0.00,,,0.00,Weather View 32 v70,2013-09-24 21:45:00,
2013-09-24 16:50:00,51.0,51.0,28.87,ENE,67,5.0,0.0,100,0.00,,,0.00,Weather View 32 v70,2013-09-24 21:50:00,
2013-09-24 17:00:00,51.0,51.0,28.87,ENE,67,5.0,0.0,100,0.00,,,0.00,Weather View 32 v70,2013-09-24 22:00:00,
2013-09-24 17:05:00,51.0,51.0,28.87,ENE,67,5.0,0.0,100,0.00,,,0.00,Weather View 32 v70,2013-09-24 22:05:00,
2013-09-24 17:12:00,51.0,51.0,28.87,ENE,67,5.0,0.0,100,0.00,,,0.00,Weather View 32 v70,2013-09-24 22:12:00,
2013-09-24 17:20:00,51.0,51.0,28.87,ENE,67,5.0,0.0,100,0.00,,,0.00,Weather View 32 v70,2013-09-24 22:20:00,
2013-09-24 17:25:00,51.0,51.0,28.87,ENE,67,5.0,0.0,100,0.00,,,0.00,Weather View 32 v70,2013-09-24 22:25:00,
2013-09-24 17:30:00,51.0,51.0,28.87,ENE,67,5.0,0.0,100,0.00,,,0.00,Weather View 32 v70,2013-09-24 22:30:00,
2013-09-24 17:40:00,51.0,51.0,28.87,ENE,67,5.0,0.0,100,0.00,,,0.00,Weather View 32 v70,2013-09-24 22:40:00,
2013-09-24 17:45:00,51.0,51.0,28.87,ENE,67,5.0,0.0,100,0.00,,,0.00,Weather View 32 v70,2013-09-24 22:45:00,
2013-09-24 17:50:00,51.0,51.0,28.87,ENE,67,5.0,0.0,100,0.00,,,0.00,Weather View 32 v70,2013-09-24 22:50:00,
2013-09-24 18:00:00,51.0,51.0,28.87,ENE,67,5.0,0.0,100,0.00,,,0.00,Weather View 32 v70,2013-09-24 23:00:00,
2013-09-24 18:05:00,51.0,51.0,28.87,ENE,67,5.0,0.0,100,0.00,,,0.00,Weather View 32 v70,2013-09-24 23:05:00,
2013-09-24 18:10:00,51.0,51.0,28.87,ENE,67,5.0,0.0,100,0.00,,,0.00,Weather View 32 v70,2013-09-24 23:10:00,
2013-09-24 18:20:00,51.0,51.0,28.87,ENE,67,5.0,0.0,100,0.00,,,0.00,Weather View 32 v70,2013-09-24 23:20:00,
2013-09-24 18:25:00,51.0,51.0,28.87,ENE,67,5.0,0.0,100,0.00,,,0.00,Weather View 32 v70,2013-09-24 23:25:00,
2013-09-24 18:35:00,51.0,51.0,28.87,ENE,67,5.0,0.0,100,0.00,,,0.00,Weather View 32 v70,2013-09-24 23:35:00,
2013-09-24 18:40:00,51.0,51.0,28.87,ENE,67,5.0,0.0,100,0.00,,,0.00,Weather View 32 v70,2013-09-24 23:40:00,
2013-09-24 18:45:00,51.0,51.0,28.87,ENE,67,5.0,0.0,100,0.00,,,0.00,Weather View 32 v70,2013-09-24 23:45:00,
2013-09-24 18:50:00,51.0,51.0,28.87,ENE,67,5.0,0.0,100,0.00,,,0.00,Weather View 32 v70,2013-09-24 23:50:00,
2013-09-24 19:00:00,51.0,51.0,28.87,ENE,67,5.0,0.0,100,0.00,,,0.00,Weather View 32 v70,2013-09-25 00:00:00,
2013-09-24 19:05:00,51.0,51.0,28.87,ENE,67,5.0,0.0,100,0.00,,,0.00,Weather View 32 v70,2013-09-25 00:05:00,
2013-09-24 19:10:00,51.0,51.0,28.87,ENE,67,5.0,0.0,100,0.00,,,0.00,Weather View 32 v70,2013-09-25 00:10:00,
2013-09-24 19:15:00,51.0,51.0,28.87,ENE,67,5.0,0.0,100,0.00,,,0.00,Weather View 32 v70,2013-09-25 00:15:00,
2013-09-24 19:20:00,51.0,51.0,28.87,ENE,67,5.0,0.0,100,0.00,,,0.00,Weather View 32 v70,2013-09-25 00:20:00,
2013-09-24 19:25:00,51.0,51.0,28.87,ENE,67,5.0,0.0,100,0.00,,,0.00,Weather View 32 v70,2013-09-25 00:25:00,
2013-09-24 19:35:00,51.0,51.0,28.87,ENE,67,5.0,0.0,100,0.00,,,0.00,Weather View 32 v70,2013-09-25 00:35:00,
2013-09-24 19:40:00,51.0,51.0,28.87,ENE,67,5.0,0.0,100,0.00,,,0.00,Weather View 32 v70,2013-09-25 00:40:00,
2013-09-24 19:45:00,51.0,51.0,28.87,ENE,67,5.0,0.0,100,0.00,,,0.00,Weather View 32 v70,2013-09-25 00:45:00,
2013-09-24 19:50:00,51.0,51.0,28.87,ENE,67,5.0,0.0,100,0.00,,,0.00,Weather View 32 v70,2013-09-25 00:50:00,
2013-09-24 20:00:00,51.0,51.0,28.87,ENE,67,5.0,0.0,100,0.00,,,0.00,Weather View 32 v70,2013-09-25 01:00:00,
2013-09-24 20:10:00,51.0,51.0,28.87,ENE,67,5.0,0.0,100,0.00,,,0.00,Weather View 32 v70,2013-09-25 01:10:00,
2013-09-24 20:20:00,51.0,51.0,28.87,ENE,67,5.0,0.0,100,0.00,,,0.00,Weather View 32 v70,2013-09-25 01:20:00,
2013-09-24 20:30:00,51.0,51.0,28.87,ENE,67,5.0,0.0,100,0.00,,,0.00,Weather View 32 v70,2013-09-25 01:30:00,
2013-09-24 20:35:00,51.0,51.0,28.87,ENE,67,5.0,0.0,100,0.00,,,0.00,Weather View 32 v70,2013-09-25 01:35:00,
2013-09-24 20:45:00,51.0,51.0,28.87,ENE,67,5.0,0.0,100,0.00,,,0.00,Weather View 32 v70,2013-09-25 01:45:00,
2013-09-24 20:50:00,51.0,51.0,28.87,ENE,67,5.0,0.0,100,0.00,,,0.00,Weather View 32 v70,2013-09-25 01:50:00,
2013-09-24 21:00:00,51.0,51.0,28.87,ENE,67,5.0,0.0,100,0.00,,,0.00,Weather View 32 v70,2013-09-25 02:00:00,
2013-09-24 21:05:00,51.0,51.0,28.87,ENE,67,5.0,0.0,100,0.00,,,0.00,Weather View 32 v70,2013-09-25 02:05:00,
2013-09-24 21:10:00,51.0,51.0,28.87,ENE,67,5.0,0.0,100,0.00,,,0.00,Weather View 32 v70,2013-09-25 02:10:00,
2013-09-24 21:15:00,51.0,51.0,28.87,ENE,67,5.0,0.0,100,0.00,,,0.00,Weather View 32 v70,2013-09-25 02:15:00,
2013-09-24 21:25:00,51.0,51.0,28.87,ENE,67,5.0,0.0,100,0.00,,,0.00,Weather View 32 v70,2013-09-25 02:25:00,
2013-09-24 21:35:00,51.0,51.0,28.87,ENE,67,5.0,0.0,100,0.00,,,0.00,Weather View 32 v70,2013-09-25 02:35:00,
2013-09-24 21:45:00,51.0,51.0,28.87,ENE,67,5.0,0.0,100,0.00,,,0.00,Weather View 32 v70,2013-09-25 02:45:00,
2013-09-24 21:50:00,51.0,51.0,28.87,ENE,67,5.0,0.0,100,0.00,,,0.00,Weather View 32 v70,2013-09-25 02:50:00,
2013-09-24 22:00:00,51.0,51.0,28.87,ENE,67,5.0,0.0,100,0.00,,,0.00,Weather View 32 v70,2013-09-25 03:00:00,
2013-09-24 22:05:00,51.0,51.0,28.87,ENE,67,5.0,0.0,100,0.00,,,0.00,Weather View 32 v70,2013-09-25 03:05:00,
2013-09-24 22:10:00,51.0,51.0,28.87,ENE,67,5.0,0.0,100,0.00,,,0.00,Weather View 32 v70,2013-09-25 03:10:00,
2013-09-24 22:15:00,51.0,51.0,28.87,ENE,67,5.0,0.0,100,0.00,,,0.00,Weather View 32 v70,2013-09-25 03:15:00,
2013-09-24 22:25:00,51.0,51.0,28.87,ENE,67,5.0,0.0,100,0.00,,,0.00,Weather View 32 v70,2013-09-25 03:25:00,
2013-09-24 22:30:00,51.0,51.0,28.87,ENE,67,5.0,0.0,100,0.00,,,0.00,Weather View 32 v70,2013-09-25 03:30:00,
2013-09-24 22:40:00,51.0,51.0,28.87,ENE,67,5.0,0.0,100,0.00,,,0.00,Weather View 32 v70,2013-09-25 03:40:00,
2013-09-24 22:50:00,51.0,51.0,28.87,ENE,67,5.0,0.0,100,0.00,,,0.00,Weather View 32 v70,2013-09-25 03:50:00,
2013-09-24 22:55:00,51.0,51.0,28.87,ENE,67,5.0,0.0,100,0.00,,,0.00,Weather View 32 v70,2013-09-25 03:55:00,
2013-09-24 23:00:00,51.0,51.0,28.87,ENE,67,5.0,0.0,100,0.00,,,0.00,Weather View 32 v70,2013-09-25 04:00:00,
2013-09-24 23:05:00,51.0,51.0,28.87,ENE,67,5.0,0.0,100,0.00,,,0.00,Weather View 32 v70,2013-09-25 04:05:00,
2013-09-24 23:10:00,51.0,51.0,28.87,ENE,67,5.0,0.0,100,0.00,,,0.00,Weather View 32 v70,2013-09-25 04:10:00,
2013-09-24 23:15:00,51.0,51.0,28.87,ENE,67,5.0,0.0,100,0.00,,,0.00,Weather View 32 v70,2013-09-25 04:15:00,
2013-09-24 23:20:00,51.0,51.0,28.87,ENE,67,5.0,0.0,100,0.00,,,0.00,Weather View 32 v70,2013-09-25 04:20:00,
2013-09-24 23:25:00,51.0,51.0,28.87,ENE,67,5.0,0.0,100,0.00,,,0.00,Weather View 32 v70,2013-09-25 04:25:00,
2013-09-24 23:30:00,51.0,51.0,28.87,ENE,67,5.0,0.0,100,0.00,,,0.00,Weather View 32 v70,2013-09-25 04:30:00,
2013-09-24 23:35:00,51.0,51.0,28.87,ENE,67,5.0,0.0,100,0.00,,,0.00,Weather View 32 v70,2013-09-25 04:35:00,
2013-09-24 23:40:00,51.0,51.0,28.87,ENE,67,5.0,0.0,100,0.00,,,0.00,Weather View 32 v70,2013-09-25 04:40:00,
2013-09-24 23:45:00,51.0,51.0,28.87,ENE,67,5.0,0.0,100,0.00,,,0.00,Weather View 32 v70,2013-09-25 04:45:00,
2013-09-24 23:50:00,51.0,51.0,28.87,ENE,67,5.0,0.0,100,0.00,,,0.00,Weather View 32 v70,2013-09-25 04:50:00,
2013-09-24 23:55:00,51.0,51.0,28.87,ENE,67,5.0,0.0,100,0.00,,,0.00,Weather View 32 v70,2013-09-25 04:55:00,